Location: Barrio Pajares
(40.5500°N, 4.1667°W)
Time: 06:39:37
(UTC+00:00)

Okean O Rocket - Visible Passes

Search period start: 13 July 2024 00:00
Search period end: 23 July 2024 00:00
Orbit: 617 x 640 km, 98.1° (Epoch: 12 July)

Date Brightness Start Highest point End Pass type
(mag) Time Alt. Az. Time Alt. Az. Time Alt. Az.
13 Jul 2.7 20:52:11 10° S 20:56:18 42° W 21:00:25 10° NNW visible
14 Jul 3.5 21:12:43 10° SSW 21:16:20 26° W 21:19:57 10° NW visible
15 Jul 4.2 21:33:45 10° SW 21:36:25 16° W 21:39:05 10° NW visible
16 Jul 1.6 20:15:33 10° SSE 20:19:50 73° ENE 20:24:09 10° N visible
17 Jul 1.9 20:35:29 10° S 20:39:45 67° WSW 20:44:04 10° NNW visible
18 Jul 2.8 20:55:42 10° SSW 20:59:44 39° W 21:03:48 10° NNW visible
19 Jul 3.6 21:16:16 10° SSW 21:19:46 24° W 21:23:17 10° NW visible
20 Jul 4.2 21:37:25 10° SW 21:39:52 15° W 21:42:19 10° WNW visible
21 Jul 1.5 20:18:56 10° SSE 20:23:13 78° ENE 20:27:33 10° N visible
22 Jul 2.0 20:38:53 10° S 20:43:08 62° WSW 20:47:26 10° NNW visible
